[[{"header":{"parameterUnit":"m.s-1","parameterCategory":1,"la1":30.2992,"la2":30.254,"lo1":-89.0895,"lo2":-89.0443,"dy":0.0025,"dx":0.0025,"nx":19,"ny":19,"refTime":"2026-04-29T21:00:00:Z","depth":0,"parameterNumber":2,"parameterNumberName":"U-component_of_WINDS"},"data":[0,0,0,4.5624,4.5628,4.5816,4.5816,4.6075,4.6077,0,0,0,0,0,0,0,0,0,0,0,4.5579,4.5582,4.5624,4.5629,4.5816,4.5816,4.6074,4.6077,0,0,0,0,0,0,0,0,0,0,0,4.5578,4.5581,4.5584,4.5629,4.5815,4.5816,4.6074,4.5926,0,0,0,0,0,0,0,0,0,0,4.5741,4.571,4.558,4.5584,4.5631,4.5815,4.5816,4.5918,4.5935,4.5998,0,4.6056,0,4.6071,4.6096,4.6097,0,0,0,4.5621,4.5696,4.5737,4.5584,4.5632,4.5815,4.5729,4.5927,4.5946,4.602,4.6059,4.6068,4.6075,4.6097,4.6099,4.6484,4.6486,0,0,4.561,4.5619,4.5724,4.575,4.5721,4.5723,4.5735,4.5939,4.5982,4.606,4.6074,4.6079,4.6099,4.6101,4.6482,4.6485,0,0,0,4.5586,4.5613,4.5647,4.574,4.5772,4.5729,4.5742,4.5973,4.5984,4.6077,4.6082,4.6101,4.6104,4.648,4.6483,4.6597,0,0,0,4.5579,4.5598,4.5643,4.5651,4.5768,4.5875,4.5773,4.597,4.5993,4.6081,4.6101,4.6107,4.6477,4.6481,4.6589,4.665,0,0,0,4.5564,4.5596,4.5627,4.5651,4.5731,4.5871,4.5893,4.5975,4.5997,4.6097,4.6108,4.6476,4.6481,4.6581,4.6637,4.6752,0,0,0,4.5549,4.5727,4.5629,4.583,4.573,4.5941,4.5892,4.6049,4.6149,4.6102,4.6477,4.6483,4.6579,4.663,4.6744,4.685,4.6894,0,0,4.5779,4.5755,4.5872,4.579,4.602,4.5911,4.6159,4.6242,4.6245,4.6404,4.6414,4.6591,4.6637,4.6751,4.7145,4.7181,0,0,0,4.5948,4.6032,4.6091,4.6186,4.6254,4.6316,4.6361,4.6392,4.6526,4.6328,4.6664,4.6691,4.6758,4.6807,4.6838,4.6894,4.6506,4.6506,4.6505,4.6285,4.6277,4.647,4.6485,4.6577,4.6621,4.6695,4.6744,4.6711,4.679,4.6837,4.7077,4.7136,4.7159,4.7217,4.6893,4.6893,4.6894,4.6894,4.6619,4.6736,4.6686,4.6855,4.6846,4.6988,4.7037,4.7008,4.7139,4.7042,4.71,4.6993,4.7198,4.7249,4.6903,4.6901,4.69,4.6899,4.6899,4.6838,4.6892,4.6926,4.7061,4.7166,4.7175,4.7303,4.7291,4.728,4.7338,4.7385,4.7383,4.7379,4.7361,4.7362,4.7363,4.7364,4.7365,4.7365,4.7051,4.7085,4.7194,4.7279,4.7338,4.7413,4.7458,4.7516,4.7576,4.7557,4.7558,4.7515,4.722,4.7145,4.7378,4.7376,4.7374,4.7373,4.7372,4.7391,4.7311,4.7479,4.7538,4.7636,4.7741,4.7723,4.7841,4.7887,4.795,4.7896,4.768,4.7655,4.7631,4.7569,4.7897,4.7897,4.7897,4.7897,4.7574,4.756,4.7728,4.7822,4.7913,4.7913,4.8103,4.814,4.8166,4.8193,4.8144,4.8061,4.8037,4.8027,4.7994,4.7936,4.835,4.8351,4.8351,4.7782,4.7776,4.7939,4.7962,4.8038,4.8104,4.8281,4.8392,4.8405,4.8369,4.8214,4.8195,4.8061,4.8018,4.7978,4.7928,4.782,0,0]},{"header":{"parameterUnit":"m.s-1","parameterCategory":1,"la1":30.2992,"la2":30.254,"lo1":-89.0895,"lo2":-89.0443,"dy":0.0025,"dx":0.0025,"nx":19,"ny":19,"refTime":"2026-04-29T21:00:00:Z","depth":0,"parameterNumber":3,"parameterNumberName":"V-component_of_WINDS"},"data":[0,0,0,0.9037,0.9039,0.9128,0.9128,0.9254,0.9255,0,0,0,0,0,0,0,0,0,0,0,0.9018,0.9019,0.9037,0.9039,0.9128,0.9128,0.9254,0.9255,0,0,0,0,0,0,0,0,0,0,0,0.9017,0.9018,0.902,0.904,0.9128,0.9128,0.9253,0.9182,0,0,0,0,0,0,0,0,0,0,0.9094,0.9083,0.9018,0.902,0.904,0.9128,0.9128,0.9179,0.9187,0.9219,0,0.9248,0,0.9254,0.9264,0.9265,0,0,0,0.9034,0.9076,0.9094,0.902,0.9041,0.9128,0.9087,0.9183,0.9192,0.923,0.925,0.9255,0.9256,0.9265,0.9266,0.9466,0.9468,0,0,0.903,0.9037,0.9087,0.91,0.9086,0.9084,0.9089,0.9188,0.9212,0.9251,0.9257,0.9258,0.9266,0.9267,0.9465,0.9467,0,0,0,0.9019,0.9034,0.9049,0.9095,0.911,0.9086,0.9093,0.9207,0.9211,0.9259,0.9259,0.9267,0.9268,0.9464,0.9466,0.9532,0,0,0,0.9016,0.9028,0.9047,0.9053,0.9108,0.916,0.911,0.9205,0.9215,0.9259,0.9267,0.927,0.9463,0.9465,0.9528,0.9563,0,0,0,0.901,0.9027,0.9042,0.9053,0.9092,0.9158,0.9168,0.9207,0.9216,0.9265,0.927,0.9462,0.9465,0.9524,0.9556,0.962,0,0,0,0.9005,0.9099,0.9043,0.9149,0.9091,0.9198,0.9167,0.9246,0.9295,0.9268,0.9463,0.9466,0.9522,0.9552,0.9615,0.9675,0.9701,0,0,0.9129,0.9114,0.9176,0.9128,0.9247,0.9183,0.9312,0.935,0.9347,0.9427,0.9432,0.9529,0.9556,0.9619,0.9837,0.9857,0,0,0,0.9218,0.9262,0.9292,0.9339,0.937,0.94,0.9417,0.9431,0.9498,0.939,0.9568,0.9583,0.962,0.9649,0.9666,0.9698,0.9479,0.9478,0.9478,0.9404,0.9395,0.9497,0.9499,0.9546,0.9562,0.96,0.9621,0.9599,0.9641,0.9666,0.9799,0.9833,0.9845,0.9879,0.9695,0.9695,0.9695,0.9696,0.9585,0.9647,0.9615,0.9702,0.9693,0.9766,0.9786,0.9768,0.9836,0.978,0.9811,0.9753,0.9868,0.9897,0.9701,0.97,0.9699,0.9699,0.9698,0.9708,0.9736,0.9751,0.9819,0.9873,0.9872,0.9938,0.9927,0.9917,0.9948,0.9973,0.9972,0.9972,0.996,0.9961,0.9961,0.9962,0.9962,0.9962,0.983,0.9845,0.9902,0.9943,0.9972,1.001,1.0027,1.0056,1.0085,1.0072,1.0072,1.0047,0.988,0.9839,0.997,0.9968,0.9967,0.9967,0.9966,1.002,0.9975,1.0064,1.0093,1.0141,1.0196,1.018,1.024,1.0262,1.0295,1.0263,1.014,1.0126,1.0112,1.0079,1.0263,1.0263,1.0263,1.0263,1.0125,1.0116,1.0204,1.0253,1.0298,1.0293,1.0395,1.041,1.0419,1.0432,1.0403,1.0357,1.0344,1.0337,1.0318,1.0287,1.0521,1.0521,1.0521,1.0242,1.0237,1.0326,1.0333,1.037,1.0402,1.0498,1.0555,1.0555,1.0531,1.0443,1.0432,1.0358,1.0333,1.0309,1.0281,1.0223,0,0]}]]